[[{"header":{"parameterUnit":"m.s-1","parameterCategory":2,"la1":30.2991,"la2":30.254,"lo1":-89.0895,"lo2":-89.0444,"dy":0.0017,"dx":0.0017,"nx":28,"ny":28,"refTime":"2025-05-15T09:00:00:Z","depth":"0","parameterNumber":2,"parameterNumberName":"U-component_of_CURRENTS"},"data":[0,0,0,0,0,0,0,0,0,0,0,0,0,0,0,0,0,0,0,0,0,0,0,0,0,0,0,0,0,0,0,0,0,0,0,0,0,0,0,0,0,0,0,0,0,0,0,0,0,0,0,0,0,0,0,0,0,0,0.2499,0.2499,0,0.249,0.249,0.2489,0.2468,0.2468,0.2468,0.2468,0.2445,0.2445,0.2444,0,0,0,0,0,0,0,0,0,0,0,0,0,0.2503,0.2502,0.2499,0.2499,0.2499,0.249,0.249,0.2489,0.2468,0.2468,0.2468,0.2467,0.2445,0.2445,0.2444,0,0,0,0,0,0,0,0,0,0,0,0,0,0.2496,0.2502,0.2499,0.2489,0.2488,0.249,0.249,0.2489,0.2468,0.2468,0.2468,0.2467,0.2445,0.2445,0.2444,0.2448,0,0,0.2442,0.2442,0,0,0,0,0,0,0,0,0.2496,0.2495,0.249,0.249,0.2489,0.2482,0.2483,0.2475,0.2468,0.2474,0.2468,0.2467,0.2458,0.2456,0.2452,0.2447,0.2446,0.2442,0.2442,0.2442,0.2442,0,0,0,0,0,0,0,0.2497,0.2496,0.2493,0.249,0.249,0.2487,0.2485,0.2481,0.2466,0.2473,0.2472,0.2475,0.2457,0.2453,0.2452,0.2445,0.2442,0.2442,0.2442,0.2441,0.2483,0.2484,0,0,0,0,0,0,0.2502,0.2496,0.2493,0.2493,0.2494,0.2487,0.2485,0.2483,0.2466,0.2464,0.2475,0.2474,0.2454,0.2452,0.2451,0.2479,0.2442,0.2441,0.2441,0.2481,0.2483,0.2485,0,0,0,0,0,0,0.2502,0.2502,0.2494,0.2496,0.2495,0.2488,0.2485,0.2483,0.2483,0.2468,0.2465,0.2479,0.2454,0.2452,0.2453,0.2477,0.2441,0.244,0.248,0.2482,0.2484,0.2521,0,0,0,0,0,0,0.2502,0.2502,0.2503,0.2497,0.2496,0.2504,0.2485,0.2483,0.2486,0.2485,0.2471,0.2468,0.2453,0.2454,0.2452,0.2476,0.244,0.2478,0.2481,0.2483,0.2517,0.2524,0.2529,0,0,0,0,0,0.2503,0.2503,0.2502,0.2502,0.2496,0.2505,0.2505,0.2496,0.2487,0.2494,0.2481,0.2468,0.2471,0.2454,0.2452,0.2476,0.2477,0.248,0.2483,0.2515,0.2522,0.2529,0,0,0,0,0,0,0.2502,0.2501,0.25,0.25,0.2508,0.2503,0.2505,0.2503,0.2498,0.2494,0.2476,0.2473,0.2491,0.2479,0.2461,0.2499,0.2476,0.2479,0.2501,0.2508,0.2514,0.2556,0.244,0,0,0,0,0,0.2505,0.2505,0.251,0.251,0.2515,0.2513,0.2515,0.2513,0.2509,0.2506,0.2496,0.2493,0.2504,0.25,0.2506,0.2514,0.2545,0.2533,0.2539,0.2544,0.258,0.2667,0.2685,0.2495,0.2495,0.2495,0,0,0.2503,0.2505,0.2503,0.2511,0.2513,0.2523,0.2513,0.2521,0.2531,0.2505,0.251,0.2514,0.2513,0.253,0.2537,0.2519,0.2605,0.2548,0.2552,0.2586,0.2673,0.2691,0.2708,0.2498,0.2497,0.2497,0,0,0.2501,0.2504,0.2504,0.2517,0.2529,0.2532,0.2539,0.2541,0.2545,0.2548,0.2549,0.2576,0.2556,0.2585,0.2591,0.2635,0.264,0.2626,0.2678,0.2762,0.2779,0.2794,0.2817,0.2835,0.2619,0.2619,0.262,0,0.25,0.25,0.2508,0.2519,0.2528,0.2539,0.2548,0.256,0.2563,0.258,0.2553,0.26,0.2594,0.2656,0.267,0.2652,0.2679,0.2645,0.2772,0.2788,0.2803,0.2823,0.2842,0.2622,0.2621,0.2621,0.2621,0,0.25,0.2506,0.251,0.2525,0.2541,0.2551,0.2574,0.2593,0.2592,0.2606,0.2662,0.2672,0.2707,0.2709,0.2696,0.2805,0.278,0.2775,0.2755,0.2825,0.284,0.2859,0.2625,0.2624,0.2623,0.2623,0,0,0.2477,0.2502,0.2504,0.2511,0.2544,0.2552,0.259,0.2628,0.2665,0.2682,0.2745,0.2776,0.2804,0.2818,0.2828,0.2898,0.3004,0.2882,0.2885,0.2906,0.3155,0.2997,0.3001,0.3023,0.3027,0.3031,0.3107,0,0.2472,0.2484,0.2504,0.252,0.2527,0.2565,0.2602,0.2646,0.268,0.2748,0.2806,0.2866,0.2838,0.2873,0.2942,0.301,0.3064,0.2982,0.3086,0.3088,0.2942,0.3023,0.291,0.2959,0.3126,0.3129,0.3131,0,0.2459,0.2471,0.2481,0.2518,0.2527,0.2545,0.2615,0.2653,0.2764,0.2802,0.289,0.2942,0.3065,0.3031,0.318,0.3129,0.3153,0.3188,0.3191,0.3057,0.2967,0.2926,0.2987,0.2948,0.316,0.3158,0.3156,0,0.2425,0.2452,0.2456,0.2467,0.2518,0.2538,0.2573,0.2665,0.2723,0.2863,0.2938,0.306,0.314,0.3229,0.3275,0.3251,0.3424,0.3393,0.3267,0.3254,0.3188,0.316,0.3232,0.3509,0.3509,0.3509,0.3509,0,0.2403,0.2406,0.2437,0.244,0.2463,0.2513,0.2566,0.2632,0.2763,0.2848,0.2972,0.307,0.3203,0.3299,0.3332,0.3346,0.3463,0.3307,0.3286,0.3186,0.3159,0.3142,0.3127,0.3512,0.3511,0.351,0.351,0,0.2359,0.238,0.2385,0.2428,0.2442,0.2459,0.255,0.2603,0.274,0.2871,0.2934,0.3115,0.322,0.3307,0.3439,0.3392,0.3333,0.3406,0.324,0.3197,0.2993,0.2983,0.2814,0.2753,0.3292,0.3289,0.3286,0,0.2333,0.2331,0.236,0.2362,0.2376,0.2414,0.2449,0.2574,0.2653,0.2876,0.2949,0.3104,0.3175,0.3287,0.3267,0.3283,0.3219,0.3156,0.309,0.2989,0.2967,0.2766,0.2717,0.3012,0.3007,0.3003,0.3,0,0.2287,0.2297,0.2302,0.231,0.2327,0.2354,0.2425,0.2488,0.2649,0.2764,0.2909,0.299,0.3086,0.3053,0.3052,0.3046,0.2984,0.307,0.3064,0.2836,0.2536,0.2464,0.2913,0.2966,0.297,0.2972,0.2974,0.2975,0.2249,0.2237,0.2246,0.2243,0.2261,0.2283,0.2289,0.2385,0.2478,0.2619,0.2756,0.2814,0.2886,0.2863,0.2835,0.2724,0.2691,0.2661,0.2681,0.2503,0.2367,0.2686,0.2641,0.2642,0.2644,0.2645,0.2646,0,0.2192,0.2183,0.218,0.217,0.2154,0.2195,0.2259,0.2257,0.2304,0.2431,0.2507,0.2558,0.2529,0.2571,0.2505,0.2399,0.2268,0.2348,0.2142,0.2139,0.2546,0.246,0.2256,0.2256,0.2256,0.2256,0.2256,0.2256,0.2161,0.2127,0.2118,0.206,0.2052,0.2015,0.2026,0.2035,0.2099,0.212,0.2144,0.2217,0.2342,0.2334,0.2249,0.2206,0.2071,0.1872,0.1918,0.2329,0.2362,0.2393,0.2313,0.2081,0.2081,0.1398,0.1393,0.139]},{"header":{"parameterUnit":"m.s-1","parameterCategory":2,"la1":30.2991,"la2":30.254,"lo1":-89.0895,"lo2":-89.0444,"dy":0.0017,"dx":0.0017,"nx":28,"ny":28,"refTime":"2025-05-15T09:00:00:Z","depth":"0","parameterNumber":3,"parameterNumberName":"V-component_of_CURRENTS"},"data":[0,0,0,0,0,0,0,0,0,0,0,0,0,0,0,0,0,0,0,0,0,0,0,0,0,0,0,0,0,0,0,0,0,0,0,0,0,0,0,0,0,0,0,0,0,0,0,0,0,0,0,0,0,0,0,0,0,0,0.0324,0.0324,0,0.0298,0.0297,0.0297,0.0275,0.0275,0.0275,0.0275,0.023,0.0229,0.0228,0,0,0,0,0,0,0,0,0,0,0,0,0,0.0322,0.0322,0.0324,0.0324,0.0324,0.0298,0.0297,0.0297,0.0275,0.0275,0.0275,0.0274,0.023,0.0229,0.0228,0,0,0,0,0,0,0,0,0,0,0,0,0,0.0311,0.0322,0.0324,0.031,0.0309,0.0298,0.0297,0.0297,0.0275,0.0275,0.0275,0.0274,0.0231,0.0229,0.0228,0.0223,0,0,0.0223,0.0222,0,0,0,0,0,0,0,0,0.0312,0.0311,0.0313,0.0311,0.031,0.029,0.028,0.0272,0.0275,0.0287,0.0275,0.0274,0.0249,0.0246,0.0241,0.0221,0.0219,0.0223,0.0222,0.0221,0.0221,0,0,0,0,0,0,0,0.0313,0.0312,0.0313,0.0312,0.0311,0.0294,0.0292,0.0278,0.0269,0.0286,0.0285,0.0283,0.0248,0.0242,0.024,0.0219,0.0223,0.0222,0.0221,0.022,0.0196,0.0196,0,0,0,0,0,0,0.032,0.0313,0.0314,0.0312,0.0311,0.0294,0.0292,0.0296,0.027,0.0266,0.0283,0.0282,0.0245,0.0242,0.0238,0.0246,0.0221,0.022,0.0219,0.0195,0.0196,0.0196,0,0,0,0,0,0,0.032,0.032,0.0315,0.0312,0.031,0.0295,0.0299,0.0296,0.0292,0.0268,0.0263,0.0283,0.0245,0.024,0.023,0.0244,0.0219,0.0218,0.0195,0.0196,0.0196,0.0253,0,0,0,0,0,0,0.032,0.0321,0.0325,0.0313,0.0311,0.0316,0.0299,0.0295,0.0292,0.029,0.0266,0.0262,0.0244,0.0233,0.0229,0.0241,0.0217,0.0195,0.0195,0.0196,0.0251,0.0256,0.026,0,0,0,0,0,0.032,0.0333,0.0326,0.0326,0.0318,0.0317,0.0314,0.0301,0.0292,0.0296,0.0278,0.0263,0.0233,0.0232,0.0227,0.024,0.0195,0.0195,0.0196,0.0249,0.0255,0.026,0,0,0,0,0,0,0.0333,0.0331,0.0324,0.0334,0.0328,0.0313,0.0315,0.0305,0.0294,0.0293,0.0266,0.0261,0.0257,0.0238,0.0238,0.0233,0.0211,0.0211,0.0253,0.0258,0.0263,0.0284,0.0215,0,0,0,0,0,0.0339,0.0347,0.0339,0.0346,0.0345,0.033,0.0327,0.032,0.0309,0.0304,0.0285,0.0267,0.0255,0.025,0.0234,0.0233,0.0228,0.0236,0.024,0.0244,0.0257,0.0274,0.0281,0.0198,0.0198,0.0198,0,0,0.0344,0.0345,0.0348,0.0349,0.0342,0.0349,0.0328,0.033,0.0337,0.0301,0.0301,0.028,0.0257,0.0256,0.0252,0.0244,0.0261,0.0245,0.0249,0.026,0.0275,0.0284,0.0291,0.0199,0.0199,0.0198,0,0,0.0364,0.0361,0.0375,0.0375,0.0373,0.0366,0.0369,0.0358,0.0354,0.035,0.0328,0.0322,0.0295,0.0291,0.0283,0.0302,0.0282,0.0287,0.0329,0.0345,0.0353,0.0359,0.0351,0.0357,0.0292,0.0292,0.0292,0,0.0369,0.039,0.0378,0.0393,0.0398,0.0376,0.0395,0.0388,0.0374,0.0379,0.0358,0.0341,0.0317,0.0332,0.0332,0.0314,0.0309,0.0314,0.0353,0.036,0.0366,0.0356,0.0361,0.0295,0.0294,0.0294,0.0294,0,0.0402,0.0417,0.0426,0.0438,0.044,0.0454,0.0444,0.0447,0.0435,0.0427,0.0434,0.0408,0.0404,0.0389,0.0363,0.0392,0.0369,0.0357,0.0346,0.0378,0.0364,0.0369,0.0299,0.0298,0.0297,0.0296,0,0,0.042,0.0446,0.0449,0.0467,0.047,0.0478,0.049,0.0501,0.0524,0.0501,0.0536,0.0501,0.049,0.0481,0.0456,0.046,0.0483,0.0426,0.0425,0.0427,0.0502,0.0462,0.0462,0.0479,0.0481,0.0482,0.0471,0,0.045,0.0496,0.0496,0.0534,0.0558,0.0547,0.0565,0.0569,0.0567,0.0593,0.0574,0.0592,0.0525,0.0539,0.053,0.0503,0.05,0.0486,0.0462,0.0461,0.0431,0.0469,0.0511,0.0504,0.0475,0.0476,0.0477,0,0.0485,0.0514,0.0561,0.06,0.0608,0.0623,0.0658,0.0676,0.0696,0.0699,0.0708,0.0694,0.0701,0.0649,0.0616,0.0609,0.0559,0.0528,0.0527,0.0477,0.0431,0.0468,0.0513,0.0479,0.0484,0.0483,0.0483,0,0.0516,0.0559,0.0603,0.0614,0.0649,0.0669,0.0691,0.071,0.0751,0.0784,0.0828,0.0805,0.0828,0.077,0.0681,0.0659,0.0644,0.061,0.0524,0.0519,0.0545,0.0541,0.0567,0.0594,0.0594,0.0594,0.0594,0,0.0553,0.0587,0.0623,0.0647,0.0706,0.0714,0.0777,0.0795,0.0855,0.0932,0.0898,0.0961,0.0862,0.0834,0.0733,0.0643,0.0683,0.0544,0.0525,0.0562,0.0559,0.0521,0.0484,0.0594,0.0594,0.0594,0.0594,0,0.0578,0.0601,0.0658,0.0706,0.0723,0.0768,0.0843,0.09,0.0945,0.1057,0.1086,0.1092,0.1051,0.0931,0.0839,0.0724,0.062,0.0588,0.0619,0.0604,0.0478,0.0442,0.045,0.0448,0.0502,0.0501,0.05,0,0.0596,0.0628,0.0699,0.0741,0.0764,0.0829,0.0885,0.0941,0.1025,0.1146,0.1226,0.1215,0.1227,0.1056,0.0858,0.068,0.0618,0.058,0.0544,0.0491,0.0438,0.0433,0.0432,0.0595,0.0595,0.0595,0.0595,0,0.063,0.0655,0.0703,0.0792,0.0855,0.0935,0.103,0.1117,0.1217,0.1321,0.1449,0.147,0.1308,0.1156,0.0885,0.0749,0.0584,0.0574,0.0539,0.0531,0.0514,0.0497,0.0558,0.0596,0.0596,0.0596,0.0596,0.0596,0.0654,0.0695,0.0762,0.0846,0.0925,0.1045,0.1137,0.1266,0.1419,0.1606,0.1603,0.1676,0.145,0.1094,0.0889,0.0586,0.0584,0.051,0.0474,0.0476,0.0473,0.0512,0.0513,0.0512,0.0512,0.0511,0.0511,0,0.0683,0.0733,0.0814,0.092,0.1015,0.1056,0.1237,0.136,0.156,0.1721,0.1823,0.1799,0.1504,0.119,0.0776,0.0561,0.0499,0.0447,0.0478,0.0482,0.0545,0.0547,0.0534,0.0534,0.0534,0.0534,0.0534,0.0534,0.07,0.0774,0.0817,0.0971,0.1055,0.121,0.1326,0.1528,0.1692,0.1924,0.2024,0.2079,0.1918,0.1127,0.0669,0.0536,0.0451,0.0393,0.0344,0.0402,0.0406,0.0411,0.0407,0.0365,0.0364,0.0349,0.0348,0.0348]}],[{"header":{"parameterUnit":"m.s-1","parameterCategory":2,"la1":30.2991,"la2":30.254,"lo1":-89.0895,"lo2":-89.0444,"dy":0.0017,"dx":0.0017,"nx":28,"ny":28,"refTime":"2025-05-15T09:00:00:Z","depth":"2","parameterNumber":2,"parameterNumberName":"U-component_of_CURRENTS"},"data":[0,0,0,0,0,0,0,0,0,0,0,0,0,0,0,0,0,0,0,0,0,0,0,0,0,0,0,0,0,0,0,0,0,0,0,0,0,0,0,0,0,0,0,0,0,0,0,0,0,0,0,0,0,0,0,0,0,0,0.2336,0.2336,0,0.233,0.2329,0.2329,0.2316,0.2316,0.2316,0.2316,0.2301,0.23,0.23,0,0,0,0,0,0,0,0,0,0,0,0,0,0.2339,0.2338,0.2336,0.2336,0.2336,0.233,0.2329,0.2329,0.2316,0.2316,0.2316,0.2316,0.2301,0.23,0.23,0,0,0,0,0,0,0,0,0,0,0,0,0,0.2333,0.2338,0.2336,0.233,0.233,0.233,0.2329,0.2329,0.2316,0.2316,0.2316,0.2316,0.2301,0.23,0.23,0.2298,0,0,0.2298,0.2298,0,0,0,0,0,0,0,0,0.2334,0.2333,0.2331,0.2331,0.233,0.2326,0.2325,0.2319,0.2316,0.2319,0.2316,0.2316,0.231,0.2309,0.2304,0.2298,0.2297,0.2298,0.2298,0.2298,0.2298,0,0,0,0,0,0,0,0.2334,0.2333,0.2331,0.2331,0.2331,0.2329,0.2328,0.2324,0.2313,0.2319,0.2318,0.2321,0.2309,0.2305,0.2304,0.2297,0.2298,0.2298,0.2298,0.2297,0.2336,0.2337,0,0,0,0,0,0,0.2339,0.2333,0.2331,0.2331,0.2334,0.233,0.2328,0.2325,0.2313,0.2312,0.2321,0.2321,0.2306,0.2305,0.2303,0.2334,0.2298,0.2297,0.2297,0.2335,0.2336,0.2338,0,0,0,0,0,0,0.2339,0.2339,0.2332,0.2334,0.2334,0.233,0.2327,0.2325,0.233,0.2316,0.2314,0.2329,0.2306,0.2304,0.2307,0.2332,0.2297,0.2297,0.2333,0.2335,0.2337,0.2374,0,0,0,0,0,0,0.2339,0.2339,0.2341,0.2334,0.2334,0.2343,0.2327,0.2325,0.2333,0.2332,0.2322,0.2319,0.2306,0.2308,0.2307,0.2331,0.2296,0.2331,0.2334,0.2336,0.2371,0.2377,0.2382,0,0,0,0,0,0.2339,0.2341,0.2341,0.2341,0.2336,0.2344,0.2344,0.2339,0.2333,0.2341,0.2331,0.232,0.2324,0.2308,0.2307,0.2331,0.233,0.2333,0.2336,0.2369,0.2376,0.2382,0,0,0,0,0,0,0.2342,0.234,0.234,0.234,0.2349,0.2343,0.2348,0.2347,0.2345,0.2343,0.2327,0.2325,0.2344,0.2332,0.2316,0.2352,0.233,0.2333,0.2355,0.2362,0.2368,0.2405,0.2296,0,0,0,0,0,0.2345,0.2345,0.2349,0.2351,0.2357,0.2355,0.2359,0.2359,0.2356,0.2355,0.2347,0.2345,0.2354,0.2352,0.2357,0.2365,0.239,0.2385,0.2391,0.2395,0.2426,0.2507,0.2523,0.2348,0.2348,0.2348,0,0,0.2345,0.2346,0.2345,0.2353,0.2355,0.2365,0.2357,0.2367,0.2377,0.2353,0.2362,0.2366,0.2364,0.238,0.2388,0.2371,0.2447,0.2399,0.2403,0.2432,0.2512,0.2529,0.2544,0.235,0.2349,0.2349,0,0,0.2345,0.235,0.2351,0.2362,0.2375,0.2378,0.2386,0.2389,0.2395,0.24,0.24,0.2426,0.2409,0.2433,0.2437,0.2479,0.2481,0.2473,0.2521,0.2598,0.2614,0.2628,0.2636,0.2651,0.2467,0.2467,0.2467,0,0.2347,0.2346,0.2355,0.2365,0.2374,0.2386,0.2395,0.2407,0.2412,0.2428,0.2407,0.2449,0.2443,0.2497,0.2511,0.2494,0.2516,0.249,0.2607,0.2622,0.2636,0.2641,0.2657,0.247,0.2469,0.2469,0.2469,0,0.2348,0.2354,0.2359,0.2373,0.2389,0.24,0.2421,0.244,0.2442,0.2456,0.2508,0.2517,0.2548,0.255,0.2536,0.2636,0.2609,0.261,0.2591,0.2656,0.2656,0.2672,0.2473,0.2472,0.2471,0.2471,0,0,0.233,0.2352,0.2355,0.2361,0.2394,0.2401,0.2437,0.2471,0.2504,0.2525,0.2584,0.2609,0.2637,0.2649,0.2658,0.2721,0.2814,0.2709,0.2712,0.2718,0.2945,0.2816,0.2821,0.284,0.2844,0.2847,0.2888,0,0.2326,0.2338,0.2355,0.2372,0.2379,0.2413,0.2446,0.2487,0.2519,0.2584,0.2637,0.2695,0.2668,0.2702,0.2765,0.2818,0.2866,0.28,0.2882,0.2883,0.2764,0.284,0.2596,0.2604,0.2904,0.2906,0.2908,0,0.2316,0.2326,0.2337,0.2369,0.2378,0.2396,0.2458,0.2493,0.2595,0.2631,0.2715,0.2765,0.2872,0.2849,0.2969,0.2929,0.2949,0.2975,0.2977,0.2868,0.2788,0.2598,0.2622,0.2935,0.2933,0.2931,0.2929,0,0.2286,0.2311,0.2315,0.2326,0.2371,0.239,0.2423,0.2505,0.2559,0.269,0.2762,0.2868,0.295,0.3018,0.3053,0.3032,0.3177,0.3147,0.3042,0.303,0.2846,0.2811,0.3251,0.3251,0.3251,0.3251,0.3251,0,0.2267,0.227,0.23,0.2304,0.2325,0.2371,0.2419,0.2478,0.2602,0.2682,0.2798,0.2886,0.3009,0.3092,0.3105,0.3111,0.3211,0.3077,0.3057,0.2842,0.2808,0.3122,0.3106,0.3252,0.3252,0.3251,0.3251,0,0.2228,0.2248,0.2252,0.2293,0.2307,0.2325,0.2411,0.2457,0.2586,0.2712,0.2774,0.294,0.3026,0.3102,0.3206,0.3162,0.3189,0.3162,0.2864,0.2809,0.297,0.2956,0.3058,0.3054,0.3051,0.3049,0.3047,0,0.2205,0.2204,0.2232,0.2235,0.2249,0.2286,0.2318,0.2434,0.2506,0.2715,0.2785,0.2932,0.2986,0.3071,0.3036,0.3026,0.312,0.2789,0.2715,0.2992,0.2963,0.2954,0.2944,0.2463,0.2456,0.2451,0.2447,0,0.2163,0.2173,0.2178,0.2187,0.2204,0.2227,0.2295,0.2353,0.2504,0.2607,0.2728,0.2793,0.2872,0.2752,0.2753,0.2712,0.277,0.2673,0.3092,0.2542,0.2433,0.2403,0.2414,0.2397,0.2402,0.2406,0.2408,0.241,0.2128,0.2118,0.2126,0.2125,0.2142,0.2157,0.2157,0.2243,0.232,0.2438,0.2558,0.2555,0.2588,0.2444,0.2359,0.2283,0.2475,0.2365,0.2382,0.2405,0.2322,0.2213,0.2116,0.212,0.2122,0.2125,0.2127,0,0.2074,0.2067,0.2063,0.2051,0.203,0.2074,0.2127,0.2105,0.2131,0.2222,0.227,0.2082,0.1995,0.2021,0.1825,0.181,0.1796,0.1733,0.1706,0.1756,0.18,0.1686,0.1312,0.131,0.1307,0.1305,0,0,0.2045,0.201,0.2,0.1937,0.1931,0.1886,0.1891,0.1865,0.189,0.1839,0.1801,0.1929,0.1974,0.1639,0.1581,0.1414,0.1576,0.1348,0.2004,0.2023,0.2065,0.2166,0.2046,0,0,0,0,0]},{"header":{"parameterUnit":"m.s-1","parameterCategory":2,"la1":30.2991,"la2":30.254,"lo1":-89.0895,"lo2":-89.0444,"dy":0.0017,"dx":0.0017,"nx":28,"ny":28,"refTime":"2025-05-15T09:00:00:Z","depth":"2","parameterNumber":3,"parameterNumberName":"V-component_of_CURRENTS"},"data":[0,0,0,0,0,0,0,0,0,0,0,0,0,0,0,0,0,0,0,0,0,0,0,0,0,0,0,0,0,0,0,0,0,0,0,0,0,0,0,0,0,0,0,0,0,0,0,0,0,0,0,0,0,0,0,0,0,0,0.0219,0.0219,0,0.0193,0.0192,0.0192,0.0173,0.0173,0.0173,0.0173,0.0131,0.013,0.0129,0,0,0,0,0,0,0,0,0,0,0,0,0,0.0219,0.022,0.0219,0.0219,0.0219,0.0193,0.0192,0.0192,0.0173,0.0173,0.0173,0.0173,0.0131,0.013,0.0129,0,0,0,0,0,0,0,0,0,0,0,0,0,0.0208,0.022,0.0219,0.0207,0.0205,0.0193,0.0192,0.0192,0.0173,0.0173,0.0173,0.0173,0.0132,0.013,0.0129,0.0122,0,0,0.0124,0.0123,0,0,0,0,0,0,0,0,0.0209,0.0208,0.0209,0.0208,0.0206,0.0187,0.0177,0.0168,0.0173,0.0185,0.0173,0.0173,0.0149,0.0146,0.014,0.012,0.0118,0.0124,0.0123,0.0122,0.0122,0,0,0,0,0,0,0,0.021,0.0209,0.0208,0.0209,0.0207,0.0191,0.0189,0.0175,0.0167,0.0184,0.0182,0.018,0.0148,0.0142,0.0139,0.0118,0.0124,0.0123,0.0122,0.0121,0.0097,0.0097,0,0,0,0,0,0,0.0216,0.021,0.0209,0.0207,0.0208,0.0191,0.0189,0.0192,0.0167,0.0164,0.0181,0.018,0.0145,0.0141,0.0138,0.0147,0.0122,0.0121,0.012,0.0096,0.0097,0.0097,0,0,0,0,0,0,0.0217,0.0217,0.021,0.0208,0.0206,0.0191,0.0195,0.0192,0.019,0.0165,0.0161,0.0182,0.0144,0.014,0.0131,0.0144,0.012,0.0119,0.0096,0.0097,0.0097,0.0152,0,0,0,0,0,0,0.0217,0.0217,0.0222,0.0209,0.0207,0.021,0.0195,0.0192,0.0189,0.0188,0.0165,0.0161,0.0144,0.0133,0.0129,0.0141,0.0118,0.0096,0.0096,0.0097,0.015,0.0154,0.0158,0,0,0,0,0,0.0217,0.0229,0.0222,0.0222,0.0214,0.0211,0.0209,0.0196,0.0189,0.0193,0.0176,0.0162,0.0133,0.0132,0.0127,0.014,0.0095,0.0096,0.0097,0.0148,0.0154,0.0158,0,0,0,0,0,0,0.0231,0.0227,0.022,0.023,0.0223,0.0208,0.021,0.0201,0.0191,0.019,0.0165,0.016,0.0156,0.0138,0.0138,0.0133,0.0112,0.0112,0.0153,0.0158,0.0162,0.0181,0.0116,0,0,0,0,0,0.0237,0.0244,0.0235,0.0242,0.024,0.0225,0.0222,0.0217,0.0205,0.0201,0.0183,0.0166,0.0154,0.0149,0.0133,0.0132,0.0124,0.0136,0.014,0.0144,0.0155,0.0166,0.0173,0.0099,0.0099,0.0099,0,0,0.0242,0.0242,0.0245,0.0245,0.0238,0.0244,0.0224,0.0226,0.0232,0.0198,0.0199,0.0179,0.0156,0.0154,0.0151,0.0143,0.0156,0.0144,0.0148,0.0158,0.0168,0.0175,0.0182,0.0099,0.0099,0.0099,0,0,0.0262,0.0259,0.0273,0.0271,0.0269,0.0261,0.0265,0.0254,0.025,0.0247,0.0225,0.0219,0.0193,0.0188,0.018,0.0197,0.0176,0.0185,0.0225,0.0236,0.0243,0.0248,0.0232,0.0236,0.019,0.019,0.019,0,0.0268,0.0288,0.0275,0.0288,0.0293,0.0272,0.0289,0.0282,0.027,0.0273,0.0255,0.0237,0.0214,0.0226,0.0227,0.0209,0.02,0.021,0.0243,0.0249,0.0254,0.0236,0.024,0.0192,0.0192,0.0192,0.0192,0,0.0299,0.0314,0.0323,0.0333,0.0334,0.0347,0.0337,0.034,0.0329,0.0321,0.0327,0.03,0.0296,0.0281,0.0256,0.0281,0.0256,0.0247,0.0236,0.0265,0.0243,0.0246,0.0196,0.0195,0.0195,0.0194,0,0,0.0319,0.0342,0.0345,0.0363,0.0363,0.0371,0.0382,0.0391,0.0412,0.039,0.0423,0.0388,0.0378,0.0368,0.0343,0.0344,0.0358,0.0311,0.031,0.0303,0.0363,0.0338,0.0338,0.0357,0.0358,0.0359,0.0328,0,0.0349,0.0392,0.039,0.0426,0.0449,0.0437,0.0454,0.0457,0.0453,0.0477,0.0458,0.0473,0.041,0.0422,0.0411,0.0379,0.0371,0.0366,0.0328,0.0327,0.0309,0.0343,0.034,0.0312,0.0331,0.0331,0.0332,0,0.0383,0.041,0.0455,0.049,0.0498,0.0513,0.0544,0.056,0.0576,0.0578,0.0585,0.057,0.0571,0.0524,0.0478,0.0477,0.0425,0.039,0.0388,0.0352,0.0309,0.0288,0.0317,0.0336,0.0336,0.0336,0.0335,0,0.0415,0.0456,0.0498,0.0507,0.0539,0.0558,0.0578,0.0593,0.0632,0.066,0.0701,0.0671,0.0693,0.0626,0.0534,0.0515,0.0483,0.0452,0.0375,0.0371,0.0355,0.0349,0.0429,0.0429,0.0429,0.0429,0.0429,0,0.0453,0.0485,0.0519,0.0542,0.0598,0.0604,0.0662,0.0678,0.0733,0.0807,0.0768,0.0822,0.0724,0.0688,0.0581,0.0487,0.0518,0.0393,0.0374,0.0371,0.0366,0.0378,0.0373,0.0428,0.0428,0.0428,0.0429,0,0.0479,0.05,0.0555,0.0599,0.0616,0.066,0.0731,0.0783,0.0823,0.093,0.0957,0.0952,0.0901,0.0781,0.0678,0.0565,0.0468,0.0424,0.041,0.0391,0.033,0.0328,0.0342,0.0341,0.0341,0.034,0.034,0,0.0498,0.0529,0.0597,0.0637,0.0659,0.0721,0.0774,0.0825,0.0904,0.1012,0.1087,0.1071,0.1069,0.0887,0.0693,0.0508,0.0476,0.0373,0.0339,0.0347,0.0327,0.0326,0.0325,0.0327,0.0326,0.0326,0.0325,0,0.0533,0.0557,0.0603,0.0689,0.075,0.0825,0.0916,0.0998,0.1091,0.1181,0.1288,0.1295,0.1132,0.0942,0.0682,0.0546,0.0399,0.0357,0.0397,0.035,0.0331,0.0311,0.0311,0.0321,0.0321,0.0322,0.0322,0.0322,0.0559,0.0599,0.0662,0.0744,0.0819,0.0933,0.1019,0.1137,0.1273,0.143,0.1417,0.142,0.12,0.0865,0.0626,0.037,0.04,0.0288,0.0291,0.0294,0.0298,0.0279,0.0259,0.0259,0.0259,0.0259,0.0259,0,0.0588,0.0637,0.0714,0.0816,0.0905,0.0947,0.1116,0.1215,0.1389,0.1499,0.157,0.1342,0.1126,0.0865,0.0498,0.0283,0.0256,0.0188,0.0205,0.0212,0.0217,0.0217,0.0156,0.0155,0.0154,0.0153,0,0,0.0605,0.0675,0.0716,0.0863,0.0945,0.109,0.1199,0.1354,0.1466,0.1566,0.1563,0.1526,0.1211,0.0912,0.0611,0.039,0.0347,0.0333,0.0441,0.0504,0.0512,0.0301,0.0313,0,0,0,0,0]}],[{"header":{"parameterUnit":"m.s-1","parameterCategory":2,"la1":30.2991,"la2":30.254,"lo1":-89.0895,"lo2":-89.0444,"dy":0.0017,"dx":0.0017,"nx":28,"ny":28,"refTime":"2025-05-15T09:00:00:Z","depth":"4","parameterNumber":2,"parameterNumberName":"U-component_of_CURRENTS"},"data":[0,0,0,0,0,0,0,0,0,0,0,0,0,0,0,0,0,0,0,0,0,0,0,0,0,0,0,0,0,0,0,0,0,0,0,0,0,0,0,0,0,0,0,0,0,0,0,0,0,0,0,0,0,0,0,0,0,0,0.1492,0.1493,0,0.1528,0.1528,0.1529,0.157,0.1571,0.1571,0.1572,0.1625,0.1626,0.1626,0,0,0,0,0,0,0,0,0,0,0,0,0,0.1453,0.1453,0.1492,0.1493,0.1493,0.1528,0.1528,0.1529,0.157,0.1571,0.1572,0.1573,0.1625,0.1626,0.1626,0,0,0,0,0,0,0,0,0,0,0,0,0,0.1475,0.1453,0.1492,0.1519,0.1522,0.1528,0.1528,0.1529,0.157,0.1571,0.1572,0.1573,0.1625,0.1626,0.1627,0.1609,0,0,0.163,0.163,0,0,0,0,0,0,0,0,0.1474,0.1477,0.1515,0.1518,0.1521,0.1547,0.1534,0.1557,0.1569,0.155,0.1572,0.1574,0.1601,0.1604,0.1605,0.1612,0.1614,0.163,0.163,0.1631,0.1631,0,0,0,0,0,0,0,0.1472,0.1475,0.1504,0.1515,0.1519,0.1528,0.1532,0.1538,0.1567,0.1551,0.1555,0.1562,0.1603,0.1604,0.1607,0.1615,0.163,0.1631,0.1631,0.1632,0.1693,0.1694,0,0,0,0,0,0,0.1471,0.1474,0.1503,0.1506,0.1502,0.1528,0.1533,0.1536,0.1567,0.1573,0.1561,0.1563,0.1602,0.1606,0.1609,0.1672,0.1631,0.1632,0.1632,0.1692,0.1693,0.1694,0,0,0,0,0,0,0.147,0.1473,0.1502,0.1492,0.1497,0.1527,0.1531,0.1536,0.1572,0.1574,0.158,0.1596,0.1603,0.1608,0.1643,0.1671,0.1632,0.1633,0.1691,0.1692,0.1694,0.1745,0,0,0,0,0,0,0.1468,0.1472,0.1491,0.1492,0.1498,0.1529,0.153,0.1536,0.1573,0.1578,0.1605,0.1609,0.1604,0.1641,0.1644,0.1672,0.1634,0.1689,0.1692,0.1693,0.1742,0.1748,0.1754,0,0,0,0,0,0.1467,0.148,0.1491,0.1496,0.1516,0.153,0.1534,0.1558,0.1574,0.1594,0.1613,0.161,0.1655,0.1643,0.1646,0.1675,0.1689,0.1691,0.1693,0.174,0.1747,0.1754,0,0,0,0,0,0,0.1475,0.1486,0.1498,0.1516,0.1535,0.1539,0.1563,0.1577,0.1606,0.1622,0.1622,0.1627,0.1672,0.1663,0.165,0.1698,0.1672,0.1675,0.1706,0.1713,0.1719,0.1738,0.1635,0,0,0,0,0,0.1484,0.15,0.151,0.1531,0.1543,0.156,0.1576,0.1592,0.1609,0.1626,0.1643,0.166,0.1676,0.1689,0.1702,0.1724,0.1731,0.1745,0.175,0.1755,0.1772,0.1799,0.1809,0.1702,0.1702,0.1702,0,0,0.1493,0.1504,0.1514,0.1535,0.1553,0.1571,0.1573,0.1607,0.1632,0.1625,0.1676,0.1688,0.1688,0.1719,0.1737,0.1719,0.179,0.1758,0.1762,0.1777,0.1803,0.1813,0.1823,0.1704,0.1703,0.1703,0,0,0.1507,0.1531,0.1545,0.1563,0.1596,0.1604,0.1622,0.1646,0.1673,0.1706,0.1716,0.1748,0.1765,0.1776,0.1779,0.1823,0.1824,0.1829,0.1869,0.1895,0.1904,0.1912,0.1937,0.1947,0.1825,0.1825,0.1826,0,0.1523,0.1536,0.1555,0.1573,0.1594,0.1623,0.1644,0.167,0.1707,0.1727,0.1733,0.178,0.179,0.1823,0.1847,0.1838,0.1854,0.1842,0.1903,0.1911,0.1919,0.1942,0.1953,0.1828,0.1828,0.1828,0.1827,0,0.1533,0.156,0.1574,0.1604,0.163,0.1657,0.1688,0.1728,0.1759,0.1776,0.1831,0.1846,0.1871,0.1881,0.1881,0.1941,0.1936,0.1912,0.1887,0.1933,0.1954,0.1965,0.1832,0.1831,0.183,0.183,0,0,0.1523,0.157,0.158,0.16,0.1651,0.1667,0.1721,0.1761,0.1791,0.1839,0.1878,0.1922,0.1941,0.1949,0.1958,0.1989,0.2062,0.1985,0.1985,0.2013,0.213,0.1974,0.1969,0.2052,0.2054,0.2056,0.2124,0,0.1529,0.1562,0.1589,0.1633,0.1651,0.1699,0.1739,0.1787,0.1822,0.1868,0.1909,0.1951,0.1962,0.1986,0.2023,0.2057,0.2091,0.2046,0.208,0.2081,0.1938,0.1976,0.2062,0.2132,0.2134,0.2136,0.2137,0,0.1522,0.1548,0.1587,0.1641,0.1656,0.1693,0.1757,0.1798,0.1866,0.1896,0.195,0.1981,0.2061,0.205,0.2141,0.2116,0.214,0.2156,0.2158,0.2003,0.1942,0.2075,0.2154,0.2153,0.2152,0.2151,0.2149,0,0.1487,0.1544,0.1577,0.1598,0.1663,0.1702,0.1748,0.1812,0.1845,0.193,0.1957,0.2037,0.209,0.2141,0.2196,0.218,0.228,0.2245,0.2125,0.2115,0.2214,0.2204,0.2305,0.2305,0.2304,0.2304,0.2304,0,0.1462,0.1493,0.157,0.1587,0.1634,0.1693,0.1745,0.1797,0.1866,0.19,0.1981,0.2014,0.2121,0.2183,0.2218,0.2205,0.2297,0.2145,0.2122,0.2233,0.2225,0.2221,0.221,0.2307,0.2306,0.2306,0.2305,0,0.141,0.1462,0.1504,0.1586,0.1619,0.1657,0.1746,0.1768,0.1851,0.1901,0.1939,0.2032,0.2107,0.2185,0.227,0.221,0.2224,0.2195,0.233,0.2311,0.2038,0.203,0.2055,0.205,0.2046,0.2043,0.204,0,0.138,0.1399,0.1497,0.1525,0.157,0.1636,0.167,0.1758,0.1772,0.189,0.1896,0.2007,0.2061,0.2061,0.2147,0.2185,0.2161,0.2144,0.2075,0.2038,0.2014,0.2012,0.2009,0.2033,0.2032,0.2031,0.203,0,0.1323,0.1376,0.1411,0.1471,0.152,0.1553,0.161,0.1603,0.1696,0.1797,0.1816,0.1849,0.1917,0.1971,0.2014,0.2036,0.2138,0.21,0.2108,0.2042,0.2011,0.1991,0.1993,0.2015,0.2017,0.2019,0.202,0,0.1288,0.1299,0.1357,0.1394,0.1451,0.1441,0.1481,0.1499,0.1531,0.1651,0.1665,0.1786,0.1905,0.1894,0.1938,0.1942,0.1904,0.1828,0.1849,0.1866,0.1768,0.1699,0.1595,0,0,0,0,0,0.1242,0.1239,0.127,0.1292,0.134,0.1371,0.1422,0.1455,0.1546,0.1519,0.1582,0.1642,0.1684,0.1744,0.1711,0.184,0.1907,0.1788,0.183,0.1934,0.1951,0.1851,0,0,0,0,0,0,0.1208,0.1237,0.1236,0.1199,0.1195,0.1223,0.125,0.131,0.1289,0.1405,0.1443,0.1543,0.1618,0.1709,0.1688,0.1704,0.1691,0.187,0.1865,0.1925,0.194,0.1954,0.1856,0,0,0,0,0]},{"header":{"parameterUnit":"m.s-1","parameterCategory":2,"la1":30.2991,"la2":30.254,"lo1":-89.0895,"lo2":-89.0444,"dy":0.0017,"dx":0.0017,"nx":28,"ny":28,"refTime":"2025-05-15T09:00:00:Z","depth":"4","parameterNumber":3,"parameterNumberName":"V-component_of_CURRENTS"},"data":[0,0,0,0,0,0,0,0,0,0,0,0,0,0,0,0,0,0,0,0,0,0,0,0,0,0,0,0,0,0,0,0,0,0,0,0,0,0,0,0,0,0,0,0,0,0,0,0,0,0,0,0,0,0,0,0,0,0,0.0086,0.0086,0,0.0068,0.0068,0.0068,0.0056,0.0056,0.0056,0.0056,0.0027,0.0026,0.0025,0,0,0,0,0,0,0,0,0,0,0,0,0,0.0087,0.0087,0.0086,0.0086,0.0086,0.0068,0.0068,0.0068,0.0056,0.0056,0.0056,0.0056,0.0027,0.0026,0.0025,0,0,0,0,0,0,0,0,0,0,0,0,0,0.008,0.0088,0.0086,0.0078,0.0077,0.0068,0.0068,0.0067,0.0056,0.0056,0.0056,0.0056,0.0027,0.0026,0.0025,0.002,0,0,0.0022,0.0021,0,0,0,0,0,0,0,0,0.008,0.008,0.008,0.0079,0.0078,0.0065,0.0058,0.0051,0.0056,0.0064,0.0056,0.0056,0.0039,0.0037,0.0033,0.0018,0.0017,0.0022,0.0021,0.0021,0.002,0,0,0,0,0,0,0,0.0081,0.008,0.0079,0.0079,0.0078,0.0067,0.0066,0.0056,0.0051,0.0063,0.0062,0.0061,0.0038,0.0034,0.0032,0.0017,0.0022,0.0021,0.002,0.002,0.0004,0.0004,0,0,0,0,0,0,0.0085,0.0081,0.0079,0.0078,0.0079,0.0068,0.0066,0.0069,0.0052,0.0049,0.0061,0.006,0.0036,0.0034,0.0031,0.004,0.0021,0.002,0.0019,0.0003,0.0004,0.0004,0,0,0,0,0,0,0.0085,0.0085,0.008,0.0079,0.0078,0.0068,0.007,0.0068,0.0068,0.005,0.0047,0.0063,0.0036,0.0033,0.0027,0.0038,0.0019,0.0018,0.0003,0.0004,0.0004,0.0046,0,0,0,0,0,0,0.0085,0.0085,0.0089,0.008,0.0078,0.008,0.007,0.0068,0.0067,0.0066,0.0051,0.0048,0.0036,0.0029,0.0026,0.0036,0.0017,0.0003,0.0003,0.0004,0.0044,0.0048,0.0051,0,0,0,0,0,0.0085,0.0094,0.009,0.0089,0.0084,0.0081,0.0079,0.0071,0.0067,0.007,0.0059,0.0049,0.0029,0.0028,0.0024,0.0035,0.0003,0.0003,0.0004,0.0043,0.0047,0.0051,0,0,0,0,0,0,0.0096,0.0093,0.0088,0.0095,0.009,0.0079,0.0081,0.0075,0.0069,0.007,0.0051,0.0048,0.0046,0.0033,0.0032,0.003,0.0014,0.0014,0.0045,0.0049,0.0052,0.0068,0.0016,0,0,0,0,0,0.0101,0.0106,0.0098,0.0104,0.0103,0.0092,0.0091,0.0087,0.0079,0.0076,0.0065,0.0053,0.0045,0.0042,0.003,0.003,0.0019,0.0034,0.0037,0.004,0.005,0.0045,0.0048,0.0006,0.0006,0.0006,0,0,0.0105,0.0105,0.0107,0.0106,0.0102,0.0107,0.0091,0.0094,0.01,0.0074,0.0078,0.0063,0.0046,0.0046,0.0045,0.0038,0.0044,0.0041,0.0043,0.0052,0.0046,0.005,0.0054,0.0006,0.0006,0.0006,0,0,0.012,0.0118,0.0128,0.0127,0.0126,0.012,0.0123,0.0116,0.0115,0.0114,0.0098,0.0095,0.0076,0.0073,0.0067,0.0082,0.006,0.0072,0.0104,0.0099,0.0103,0.0106,0.009,0.0091,0.0076,0.0076,0.0076,0,0.0126,0.014,0.013,0.014,0.0145,0.0129,0.0143,0.0139,0.0131,0.0135,0.0121,0.0108,0.0093,0.0102,0.0105,0.0091,0.0077,0.0092,0.0104,0.0107,0.011,0.0093,0.0094,0.0078,0.0078,0.0078,0.0078,0,0.0148,0.016,0.0167,0.0175,0.0177,0.0187,0.0181,0.0185,0.018,0.0174,0.0178,0.0158,0.0154,0.0145,0.0128,0.0141,0.012,0.0108,0.0098,0.0117,0.0097,0.0098,0.0081,0.0081,0.008,0.0079,0,0,0.0162,0.018,0.0183,0.0199,0.02,0.0207,0.0219,0.0229,0.0244,0.0229,0.0249,0.023,0.0218,0.0212,0.0192,0.0185,0.0185,0.0156,0.0154,0.0145,0.0163,0.0145,0.0144,0.0172,0.0172,0.0173,0.0139,0,0.0185,0.0217,0.0218,0.0249,0.0266,0.0261,0.0276,0.0281,0.0278,0.0291,0.0275,0.0282,0.0243,0.0248,0.0234,0.02,0.0189,0.0195,0.0141,0.0139,0.0126,0.0145,0.0174,0.0139,0.014,0.014,0.014,0,0.0208,0.0229,0.0266,0.0298,0.0306,0.0321,0.0349,0.0362,0.0369,0.0368,0.0368,0.0349,0.0344,0.0309,0.0262,0.0264,0.022,0.0188,0.0185,0.0158,0.0124,0.0117,0.014,0.014,0.014,0.014,0.014,0,0.023,0.0265,0.03,0.0309,0.0337,0.0359,0.0378,0.0389,0.0417,0.0426,0.0444,0.0417,0.042,0.0363,0.0289,0.0277,0.0231,0.0207,0.0148,0.0146,0.0152,0.0149,0.0178,0.0178,0.0178,0.0179,0.0179,0,0.0254,0.0283,0.0317,0.0336,0.0386,0.0394,0.0444,0.0456,0.0488,0.053,0.0493,0.0513,0.0434,0.0394,0.0315,0.0234,0.025,0.0162,0.0142,0.0168,0.0168,0.0152,0.0149,0.0177,0.0178,0.0178,0.0178,0,0.0269,0.0289,0.0336,0.0379,0.0398,0.0436,0.0498,0.0535,0.0554,0.0612,0.0625,0.0595,0.0542,0.0452,0.0361,0.0277,0.0197,0.0163,0.0199,0.0181,0.0106,0.0105,0.0097,0.0097,0.0096,0.0096,0.0095,0,0.0279,0.0304,0.037,0.0406,0.043,0.0487,0.053,0.0569,0.0613,0.0662,0.0694,0.0665,0.063,0.049,0.0378,0.0229,0.02,0.0143,0.0122,0.0119,0.01,0.0101,0.0102,0.0094,0.0094,0.0094,0.0094,0,0.0298,0.0324,0.0362,0.0438,0.0494,0.0559,0.0625,0.0662,0.0716,0.0737,0.076,0.0693,0.063,0.0501,0.0387,0.0276,0.0171,0.0136,0.0136,0.0116,0.0114,0.0097,0.0098,0.0091,0.0092,0.0092,0.0092,0,0.0314,0.0344,0.0399,0.0466,0.054,0.0613,0.0646,0.0703,0.0748,0.08,0.0804,0.0736,0.0698,0.0526,0.0421,0.031,0.027,0.0209,0.0204,0.0205,0.0237,0.0251,0.0263,0,0,0,0,0,0.0326,0.036,0.0424,0.05,0.0576,0.0622,0.0702,0.0731,0.0781,0.0808,0.0812,0.0756,0.0609,0.054,0.0429,0.0387,0.0236,0.0248,0.0159,0.0079,0.0082,0.0098,0,0,0,0,0,0,0.0333,0.0387,0.0419,0.0515,0.0574,0.0661,0.0716,0.0754,0.0765,0.0797,0.0724,0.0704,0.056,0.0681,0.0422,0.0389,0.0308,0.0187,0.0183,0.0078,0.008,0.0082,0.01,0,0,0,0,0]}]]